Weather History for Meadville, PA

Change the Weather History Date:

Saturday, October 27, 2012

  Actual Average Record
Temperature  
Mean Temperature 46 °F -  
Max Temperature 48 °F 57 °F 82 °F (1963)
Min Temperature 44 °F 35 °F 22 °F (1949)
Degree Days  
Heating Degree Days 19    
Moisture  
Dew Point 43 °F    
Average Humidity 91    
Maximum Humidity 96    
Minimum Humidity 86    
Precipitation  
Precipitation 0.71 in - - ()
Sea Level Pressure  
Sea Level Pressure 30.03 in    
Wind  
Wind Speed 11 mph (NNE)    
Max Wind Speed 15 mph    
Max Gust Speed 23 mph    
Visibility 6 miles    
Events Rain    
Averages and records for this station are not official NWS values.
T = Trace of Precipitation, MM = Missing Value Source: NWS Daily Summary

Daily Weather History Graph

Daily Weather History Graph

Search for Another Location

Airport:

Trip Planner

Search our weather history database for the weather conditions in past years. The results will help you decide how hot, cold, wet, or windy it might be!

Date:

Astronomy

Oct. 27, 2012 Rise Set
Actual Time 7:47 AM EDT 6:21 PM EDT
Civil Twilight 7:18 AM EDT 6:49 PM EDT
Nautical Twilight 6:46 AM EDT 7:22 PM EDT
Astronomical Twilight 6:13 AM EDT 7:54 PM EDT
Moon 5:07 PM EDT (10/27) 5:39 AM EDT (10/27)
Length of Visible Light 11h 31m
Length of Day
10h 33m
Waxing Gibbous, 96% of the Moon is Illuminated
Oct 27
Waxing Gibbous
Oct 29
Full
Nov 6
Last Quarter
Nov 13
New
Nov 20
First Quarter

Hourly Weather History & Observations

Time (EDT) Temp. Windchill Dew Point Humidity Pressure Visibility Wind Dir Wind Speed Gust Speed Precip Events Conditions
12:53 AM 48.0 °F - 44.1 °F 86% 30.10 in 10.0 mi NNE 11.5 mph - N/A   Overcast
1:53 AM 46.9 °F - 45.0 °F 93% 30.07 in 5.0 mi NNE 10.4 mph - N/A   Overcast
2:53 AM 46.9 °F - 45.0 °F 93% 30.06 in 5.0 mi NNE 12.7 mph - 0.00 in Rain Light Rain
3:53 AM 46.9 °F - 44.1 °F 90% 30.03 in 5.0 mi NE 13.8 mph 19.6 mph 0.01 in   Overcast
4:53 AM 46.0 °F 40.6 °F 44.1 °F 93% 30.03 in 10.0 mi North 11.5 mph 19.6 mph 0.01 in   Overcast
5:53 AM 45.0 °F 38.9 °F 43.0 °F 93% 30.02 in 6.0 mi NNE 12.7 mph - 0.01 in Rain Light Rain
6:33 AM 44.6 °F 38.4 °F 42.8 °F 93% 30.01 in 4.0 mi NNE 12.7 mph - 0.02 in Rain Rain
6:53 AM 45.0 °F 38.9 °F 43.0 °F 93% 30.01 in 5.0 mi NNE 12.7 mph - 0.03 in Rain Light Rain
7:53 AM 45.0 °F 39.3 °F 43.0 °F 93% 30.01 in 3.0 mi NNE 11.5 mph 17.3 mph 0.02 in Rain Light Rain
8:17 AM 44.6 °F 39.7 °F 42.8 °F 93% 30.01 in 2.5 mi NNE 9.2 mph 18.4 mph 0.01 in Rain Light Rain
8:31 AM 44.6 °F 38.4 °F 42.8 °F 93% 30.01 in 3.0 mi NNE 12.7 mph 18.4 mph 0.02 in Rain Light Rain
8:44 AM 44.6 °F 39.7 °F 42.8 °F 93% 30.01 in 2.0 mi NNE 9.2 mph - 0.02 in Rain Light Rain
8:53 AM 45.0 °F 40.1 °F 43.0 °F 93% 30.02 in 2.0 mi NNE 9.2 mph - 0.03 in Rain Rain
9:33 AM 44.6 °F 39.2 °F 42.8 °F 93% 30.00 in 1.5 mi NE 10.4 mph - N/A Rain Rain
9:53 AM 46.0 °F 41.4 °F 43.0 °F 89% 30.02 in 2.5 mi NNE 9.2 mph 18.4 mph N/A Rain Rain
10:29 AM 46.4 °F 42.4 °F 44.6 °F 93% 30.01 in 2.0 mi North 8.1 mph - 0.03 in Rain Rain
10:53 AM 46.0 °F 43.1 °F 44.1 °F 93% 30.02 in 2.5 mi North 5.8 mph - 0.07 in Rain Rain
11:53 AM 46.0 °F 43.1 °F 45.0 °F 96% 30.03 in 6.0 mi North 5.8 mph - 0.12 in Rain Light Rain
12:35 PM 46.4 °F 42.4 °F 44.6 °F 93% 30.00 in 10.0 mi North 8.1 mph - 0.06 in Rain Light Rain
12:53 PM 46.9 °F - 45.0 °F 93% 30.01 in 10.0 mi North 9.2 mph - 0.08 in   Overcast
1:01 PM 48.2 °F - 46.4 °F 93% 29.99 in 10.0 mi North 8.1 mph - 0.01 in Rain Light Rain
1:53 PM 48.0 °F - 45.0 °F 89% 30.01 in 10.0 mi NNW 6.9 mph 16.1 mph 0.07 in   Overcast
2:53 PM 46.9 °F - 44.1 °F 90% 30.01 in 10.0 mi North 10.4 mph 19.6 mph 0.06 in Rain Light Rain
3:53 PM 46.0 °F 41.0 °F 43.0 °F 89% 30.02 in 6.0 mi North 10.4 mph 19.6 mph 0.04 in Rain Light Rain
4:53 PM 46.0 °F 40.6 °F 43.0 °F 89% 30.03 in 10.0 mi North 11.5 mph 17.3 mph 0.03 in   Overcast
5:53 PM 46.0 °F 41.9 °F 43.0 °F 89% 30.06 in 10.0 mi North 8.1 mph 18.4 mph 0.03 in Rain Light Rain
6:05 PM 44.6 °F 40.2 °F 42.8 °F 93% 30.05 in 4.0 mi North 8.1 mph - 0.01 in   Overcast
6:23 PM 44.6 °F 38.8 °F 42.8 °F 93% 30.04 in 2.5 mi North 11.5 mph - 0.01 in   Overcast
6:48 PM 44.6 °F 40.2 °F 42.8 °F 93% 30.04 in 3.0 mi North 8.1 mph - 0.02 in   Overcast
6:53 PM 45.0 °F 40.1 °F 43.0 °F 93% 30.06 in 4.0 mi North 9.2 mph - 0.03 in   Overcast
7:26 PM 46.4 °F 41.5 °F 42.8 °F 87% 30.05 in 5.0 mi North 10.4 mph - 0.01 in   Overcast
7:53 PM 45.0 °F 41.2 °F 43.0 °F 93% 30.07 in 5.0 mi North 6.9 mph - 0.02 in Rain Light Rain
8:53 PM 46.0 °F 39.6 °F 42.1 °F 86% 30.06 in 10.0 mi North 15.0 mph 23.0 mph 0.02 in   Overcast
9:53 PM 45.0 °F 39.7 °F 42.1 °F 90% 30.07 in 10.0 mi NNE 10.4 mph 20.7 mph 0.01 in   Overcast
10:53 PM 45.0 °F 39.7 °F 41.0 °F 86% 30.08 in 10.0 mi NNE 10.4 mph 18.4 mph 0.02 in   Overcast